Home   Weather   Talkeetna   Past weeks

Flag for USA Past Weather in Talkeetna, Alaska, USA — Yesterday and Last 2 Weeks

Now
41 °F

Fog.


Feels Like: 39 °F
Forecast: 40 / 56 °F
Wind: 3 mph from East

Location: Talkeetna Weather Reporting Station

Current Time: Apr 25, 2017 at 8:52:43 am

Latest Report: Apr 25, 2017 at 7:53 am


Visibility: 0 mi

Pressure: 29.60 "Hg

Humidity: 100%

Dew Point: 41 °F

Location of TalkeetnaLocation

Past Weather in Talkeetna — Graph

°F

Talkeetna Temperature Yesterday

Maximum temperature yesterday: 56 °F (at 1:53 pm)
Minimum temperature yesterday: 40 °F (at 6:53 am)
Average temperature yesterday: 48 °F

High & Low Weather Summary for the Past Weeks

 TemperatureHumidityPressure
High59 °F (Apr 22, 5:53 pm)100% (Apr 25, 1:53 am)30.39 "Hg (Apr 25, 1:53 am)
Low22 °F (Apr 15, 6:53 am)17% (Apr 13, 4:53 pm)29.56 "Hg (Apr 24, 4:53 pm)
Average43 °F46%30.00 "Hg
* Reported Apr 10 6:53 am — Apr 25 6:53 am, Talkeetna, Weather by CustomWeather, © 2017

Note: Actual official high and low records may vary slightly from our data, if they occured in-between our weather recording intervals... More about our weather records

Advertising

Talkeetna Weather History for the Previous 24 Hours

Scroll right to see more
 ConditionsComfort  
Time TempWeatherWind HumidityBarometerVisibility
6:53 am
Tue, Apr 25
40 °FFog.5 mph100%29.59 "Hg1 mi
5:53 am37 °FFog.No wind100%29.58 "Hg1 mi
4:53 am39 °FFog.No wind96%29.58 "Hg1 mi
3:53 am40 °FFog.No wind97%29.58 "Hg2 mi
2:53 am41 °FFog.No wind100%29.58 "Hg3 mi
1:53 am42 °FFog.No wind100%29.58 "Hg1 mi
12:53 am45 °FOvercast.No wind93%29.57 "Hg10 mi
11:53 pm
Mon, Apr 24
46 °FLight rain. Mostly cloudy.3 mph93%29.58 "Hg10 mi
10:53 pm46 °FLight rain. Mostly cloudy.3 mph96%29.58 "Hg10 mi
9:53 pm46 °FLight rain. Overcast.No wind96%29.58 "Hg10 mi
8:53 pm48 °FLight rain. Mostly cloudy.No wind89%29.58 "Hg8 mi
7:53 pm48 °FLight rain. Fog.3 mph86%29.58 "Hg6 mi
6:53 pm51 °FLight rain. Overcast.7 mph66%29.57 "Hg10 mi
5:53 pm55 °FLight rain. Overcast.8 mph51%29.56 "Hg10 mi
4:53 pm56 °FMostly cloudy.6 mph46%29.56 "Hg10 mi
3:53 pm56 °FOvercast.5 mph42%29.57 "Hg10 mi
2:53 pm56 °FOvercast.7 mph42%29.57 "Hg10 mi
1:53 pm56 °FBroken clouds.5 mph40%29.58 "Hg10 mi
12:53 pm54 °FMostly cloudy.3 mph41%29.60 "Hg10 mi
11:53 am52 °FOvercast.3 mph45%29.61 "Hg10 mi
10:53 am49 °FOvercast.5 mph50%29.62 "Hg10 mi
9:53 am48 °FOvercast.No wind52%29.63 "Hg10 mi
8:53 am45 °FOvercast.No wind58%29.64 "Hg10 mi
Weather by CustomWeather, © 2017

See weather overviewHow to use our weather pages